TimeCEST,TemperatureF,Dew PointF,Humidity,Sea Level PressureIn,VisibilityMPH,Wind Direction,Wind SpeedMPH,Gust SpeedMPH,PrecipitationIn,Events,Conditions,WindDirDegrees,DateUTC
12:00 AM,48.2,44.6,87,30.04,2.8,Variable,1.2,-,N/A,,Overcast,0,2012-10-24 22:00:00
1:00 AM,48.2,46.4,93,30.04,2.5,ESE,2.3,-,N/A,,Overcast,120,2012-10-24 23:00:00
2:00 AM,48.2,46.4,93,30.04,2.5,Calm,Calm,-,N/A,,Overcast,0,2012-10-25 00:00:00
3:00 AM,48.2,46.4,93,30.01,-9999.0,South,2.3,-,N/A,,Overcast,180,2012-10-25 01:00:00
4:00 AM,48.2,46.4,93,30.01,2.2,South,2.3,-,N/A,,Overcast,180,2012-10-25 02:00:00
5:00 AM,48.2,46.4,93,29.98,-9999.0,Variable,2.3,-,N/A,,Overcast,0,2012-10-25 03:00:00
5:32 AM,48.2,46.4,93,29.98,-9999.0,South,3.5,-,N/A,,Overcast,190,2012-10-25 03:32:00
6:00 AM,48.2,46.4,93,29.98,-9999.0,South,4.6,-,N/A,,Overcast,180,2012-10-25 04:00:00
6:17 AM,48.2,46.4,93,29.98,-9999.0,South,4.6,-,N/A,,Overcast,180,2012-10-25 04:17:00
7:00 AM,48.2,46.4,93,29.98,1.9,South,4.6,-,N/A,,Overcast,190,2012-10-25 05:00:00
7:17 AM,48.2,46.4,93,29.95,1.5,SSW,3.5,-,N/A,,Overcast,210,2012-10-25 05:17:00
8:00 AM,48.2,46.4,93,29.98,1.2,Variable,1.2,-,N/A,,Light Drizzle,0,2012-10-25 06:00:00
8:10 AM,48.2,46.4,93,29.98,0.9,Variable,1.2,-,N/A,,Light Drizzle,0,2012-10-25 06:10:00
9:00 AM,46.4,46.4,100,29.95,0.9,WSW,1.2,-,N/A,,Light Drizzle,250,2012-10-25 07:00:00
9:15 AM,46.4,46.4,100,29.95,1.1,Variable,2.3,-,N/A,,Light Drizzle,0,2012-10-25 07:15:00
10:00 AM,48.2,46.4,93,29.95,1.1,WSW,3.5,-,N/A,,Light Drizzle,240,2012-10-25 08:00:00
11:00 AM,48.2,46.4,93,29.95,1.4,WSW,3.5,-,N/A,,Light Drizzle,250,2012-10-25 09:00:00
11:40 AM,48.2,46.4,93,29.92,-9999.0,SW,6.9,-,N/A,,Overcast,230,2012-10-25 09:40:00
12:00 PM,48.2,46.4,93,29.92,-9999.0,SW,5.8,-,N/A,,Overcast,230,2012-10-25 10:00:00
12:15 PM,50.0,46.4,87,29.92,3.1,WSW,5.8,-,N/A,,Overcast,240,2012-10-25 10:15:00
12:35 PM,48.2,46.4,93,29.92,3.7,WSW,9.2,-,N/A,,Overcast,250,2012-10-25 10:35:00
1:00 PM,48.2,44.6,87,29.92,5.0,WSW,8.1,-,N/A,,Overcast,240,2012-10-25 11:00:00
2:00 PM,48.2,44.6,87,29.89,5.6,SW,8.1,-,N/A,,Overcast,230,2012-10-25 12:00:00
3:00 PM,48.2,44.6,87,29.86,6.2,WSW,6.9,-,N/A,,Overcast,240,2012-10-25 13:00:00
4:00 PM,48.2,44.6,87,29.86,6.2,WSW,6.9,-,N/A,,Overcast,250,2012-10-25 14:00:00
5:00 PM,48.2,42.8,82,29.86,6.2,WSW,5.8,-,N/A,,Overcast,250,2012-10-25 15:00:00
6:00 PM,48.2,44.6,87,29.83,6.2,SW,5.8,-,N/A,,Overcast,220,2012-10-25 16:00:00
7:00 PM,48.2,44.6,87,29.83,6.2,SSW,5.8,-,N/A,,Overcast,210,2012-10-25 17:00:00
8:00 PM,48.2,44.6,87,29.83,6.2,SW,4.6,-,N/A,,Overcast,220,2012-10-25 18:00:00
8:46 PM,48.2,44.6,87,29.83,6.2,SSW,3.5,-,N/A,,Mostly Cloudy,210,2012-10-25 18:46:00
9:00 PM,48.2,44.6,87,29.83,6.2,SSW,3.5,-,N/A,,Mostly Cloudy,210,2012-10-25 19:00:00
10:00 PM,48.2,44.6,87,29.83,6.2,SSW,5.8,-,N/A,,Overcast,210,2012-10-25 20:00:00
11:00 PM,48.2,44.6,87,29.80,6.2,WSW,8.1,-,N/A,,Mostly Cloudy,250,2012-10-25 21:00:00